South Bend Regional Airport
KSBN : now visible

Airfield :











YOU CAN JOIN US ON...

 
LOGIN :

Register | Disclaimer

   EN    FR    IT 

 









Legend :    VFR   Marginal VFR   IFR   Intensive IFR   Very Intensive IFR
Visi :
Ceiling :
>= 8 km
>= 3000ft
5 to 8 km
1000 to 3000 ft
1500m to 5 km
500 to 1000 ft
800 to 1500m
200 to 500 ft
< 800m
< 200 ft
Symbols :   Thunderstorms  Fog  Heavy snow  Heavy precipitations  Wind > 20 kt






- Airport Elevation : 799 ft
- IATA code : SBN


KSBN - South Bend Regional

CURRENT METAR :
  • 150354Z AUTO 33006KT 10SM OVC040 04/M03 A3003 RMK AO2 SLP175 T00391033 $

EXPIRED METARs :
  • 150254Z 33006KT 10SM OVC044 04/M03 A3005 RMK AO2 SLP181 T00441033 50003 $
  • 150154Z 34011KT 10SM OVC050 04/M03 A3006 RMK AO2 SLP185 T00441033 $

TAF KSBN
Valid from the 15 at 00:00 until the 16 at 00:00 UTC


142338Z 1500/1524 33007KT P6SM BKN050
FM151000 29006KT P6SM SCT020 BKN035
FM151200 31012G20KT P6SM BKN015
FM151900 32014G22KT P6SM BKN022
FM152100 33013G22KT P6SM BKN035
KZAU FIR / North America



MET'MAP, your aeronautical weather chart ! - Copyright ORBIFLY December 2007 - Disclaimer

ORBIFLY MET'MAP TEAM :

Programming & Development : Alexandra Zaïnal
Concept & original design : Baudouin d'Aumeries
Assistance for programming : Marc-Olivier Méhu
Technical & hardware support : Manuel Goepfert

Contact : metmap@orbifly.com




SOURCES & CREDITS :

   NOAA       Earth
Advisory